Year,Month,Day,Hour,Minute,Value (Times are PST for temperature in C)
2014,08,11,00,00,23.20
2014,08,11,00,01,23.20
2014,08,11,00,02,23.30
2014,08,11,00,03,23.30
2014,08,11,00,04,23.40
2014,08,11,00,05,23.50
2014,08,11,00,06,23.60
2014,08,11,00,07,23.70
2014,08,11,00,08,23.70
2014,08,11,00,09,23.80
2014,08,11,00,10,23.90
2014,08,11,00,11,23.90
2014,08,11,00,12,23.90
2014,08,11,00,13,23.90
2014,08,11,00,14,24.00
2014,08,11,00,15,23.90
2014,08,11,00,16,23.90
2014,08,11,00,17,23.90
2014,08,11,00,18,23.90
2014,08,11,00,19,23.80
2014,08,11,00,20,23.80
2014,08,11,00,21,23.80
2014,08,11,00,22,23.80
2014,08,11,00,23,23.80
2014,08,11,00,24,23.80
2014,08,11,00,25,23.80
2014,08,11,00,26,23.80
2014,08,11,00,27,23.80
2014,08,11,00,28,23.80
2014,08,11,00,29,23.80
2014,08,11,00,30,23.70
2014,08,11,00,31,23.70
2014,08,11,00,32,23.70
2014,08,11,00,33,23.60
2014,08,11,00,34,23.50
2014,08,11,00,35,23.50
2014,08,11,00,36,23.40
2014,08,11,00,37,23.30
2014,08,11,00,38,23.20
2014,08,11,00,39,23.20
2014,08,11,00,40,23.10
2014,08,11,00,41,23.10
2014,08,11,00,42,23.00
2014,08,11,00,43,23.00
2014,08,11,00,44,23.00
2014,08,11,00,45,23.00
2014,08,11,00,46,23.00
2014,08,11,00,47,22.90
2014,08,11,00,48,22.90
2014,08,11,00,49,22.90
2014,08,11,00,50,22.80
2014,08,11,00,51,22.80
2014,08,11,00,52,22.80
2014,08,11,00,53,22.80
2014,08,11,00,54,22.80
2014,08,11,00,55,22.80
2014,08,11,00,56,22.80
2014,08,11,00,57,22.80
2014,08,11,00,58,22.80
2014,08,11,00,59,22.80
2014,08,11,01,00,22.80
2014,08,11,01,01,22.80
2014,08,11,01,02,22.80
2014,08,11,01,03,22.80
2014,08,11,01,04,22.80
2014,08,11,01,05,22.80
2014,08,11,01,06,22.90
2014,08,11,01,07,22.90
2014,08,11,01,08,22.90
2014,08,11,01,09,22.90
2014,08,11,01,10,23.00
2014,08,11,01,11,23.00
2014,08,11,01,12,23.00
2014,08,11,01,13,23.10
2014,08,11,01,14,23.10
2014,08,11,01,15,23.10
2014,08,11,01,16,23.10
2014,08,11,01,17,23.20
2014,08,11,01,18,23.20
2014,08,11,01,19,23.20
2014,08,11,01,20,23.20
2014,08,11,01,21,23.20
2014,08,11,01,22,23.20
2014,08,11,01,23,23.20
2014,08,11,01,24,23.20
2014,08,11,01,25,23.20
2014,08,11,01,26,23.20
2014,08,11,01,27,23.20
2014,08,11,01,28,23.20
2014,08,11,01,29,23.20
2014,08,11,01,30,23.10
2014,08,11,01,31,23.10
2014,08,11,01,32,23.10
2014,08,11,01,33,23.10
2014,08,11,01,34,23.10
2014,08,11,01,35,23.10
2014,08,11,01,36,23.00
2014,08,11,01,37,23.00
2014,08,11,01,38,23.00
2014,08,11,01,39,23.00
2014,08,11,01,40,23.00
2014,08,11,01,41,23.00
2014,08,11,01,42,23.00
2014,08,11,01,43,23.00
2014,08,11,01,44,22.90
2014,08,11,01,45,22.90
2014,08,11,01,46,22.80
2014,08,11,01,47,22.80
2014,08,11,01,48,22.80
2014,08,11,01,49,22.70
2014,08,11,01,50,22.70
2014,08,11,01,51,22.80
2014,08,11,01,52,22.80
2014,08,11,01,53,22.80
2014,08,11,01,54,22.80
2014,08,11,01,55,22.80
2014,08,11,01,56,22.80
2014,08,11,01,57,22.80
2014,08,11,01,58,22.80
2014,08,11,01,59,22.70
2014,08,11,02,00,22.70
2014,08,11,02,01,22.70
2014,08,11,02,02,22.60
2014,08,11,02,03,22.60
2014,08,11,02,04,22.60
2014,08,11,02,05,22.50
2014,08,11,02,06,22.40
2014,08,11,02,07,22.40
2014,08,11,02,08,22.40
2014,08,11,02,09,22.30
2014,08,11,02,10,22.30
2014,08,11,02,11,22.30
2014,08,11,02,12,22.30
2014,08,11,02,13,22.20
2014,08,11,02,14,22.20
2014,08,11,02,15,22.20
2014,08,11,02,16,22.20
2014,08,11,02,17,22.10
2014,08,11,02,18,22.10
2014,08,11,02,19,22.00
2014,08,11,02,20,22.00
2014,08,11,02,21,21.90
2014,08,11,02,22,21.90
2014,08,11,02,23,21.90
2014,08,11,02,24,21.90
2014,08,11,02,25,21.90
2014,08,11,02,26,21.90
2014,08,11,02,27,21.90
2014,08,11,02,28,21.90
2014,08,11,02,29,21.90
2014,08,11,02,30,21.90
2014,08,11,02,31,21.90
2014,08,11,02,32,21.90
2014,08,11,02,33,21.90
2014,08,11,02,34,21.80
2014,08,11,02,35,21.80
2014,08,11,02,36,21.70
2014,08,11,02,37,21.60
2014,08,11,02,38,21.50
2014,08,11,02,39,21.40
2014,08,11,02,40,21.40
2014,08,11,02,41,21.40
2014,08,11,02,42,21.30
2014,08,11,02,43,21.30
2014,08,11,02,44,21.30
2014,08,11,02,45,21.30
2014,08,11,02,46,21.30
2014,08,11,02,47,21.30
2014,08,11,02,48,21.30
2014,08,11,02,49,21.30
2014,08,11,02,50,21.20
2014,08,11,02,51,21.20
2014,08,11,02,52,21.10
2014,08,11,02,53,21.00
2014,08,11,02,54,21.00
2014,08,11,02,55,20.90
2014,08,11,02,56,20.80
2014,08,11,02,57,20.80
2014,08,11,02,58,20.80
2014,08,11,02,59,20.70
2014,08,11,03,00,20.70
2014,08,11,03,01,20.70
2014,08,11,03,02,20.80
2014,08,11,03,03,20.80
2014,08,11,03,04,20.80
2014,08,11,03,05,20.80
2014,08,11,03,06,20.90
2014,08,11,03,07,20.90
2014,08,11,03,08,20.90
2014,08,11,03,09,20.90
2014,08,11,03,10,20.90
2014,08,11,03,11,20.90
2014,08,11,03,12,20.90
2014,08,11,03,13,20.90
2014,08,11,03,14,20.90
2014,08,11,03,15,20.80
2014,08,11,03,16,20.80
2014,08,11,03,17,20.80
2014,08,11,03,18,20.80
2014,08,11,03,19,20.80
2014,08,11,03,20,20.80
2014,08,11,03,21,20.90
2014,08,11,03,22,20.90
2014,08,11,03,23,20.80
2014,08,11,03,24,20.80
2014,08,11,03,25,20.80
2014,08,11,03,26,20.80
2014,08,11,03,27,20.80
2014,08,11,03,28,20.80
2014,08,11,03,29,20.70
2014,08,11,03,30,20.70
2014,08,11,03,31,20.60
2014,08,11,03,32,20.60
2014,08,11,03,33,20.50
2014,08,11,03,34,20.50
2014,08,11,03,35,20.40
2014,08,11,03,36,20.30
2014,08,11,03,37,20.30
2014,08,11,03,38,20.20
2014,08,11,03,39,20.10
2014,08,11,03,40,20.00
2014,08,11,03,41,19.90
2014,08,11,03,42,19.90
2014,08,11,03,43,19.80
2014,08,11,03,44,19.70
2014,08,11,03,45,19.70
2014,08,11,03,46,19.60
2014,08,11,03,47,19.50
2014,08,11,03,48,19.40
2014,08,11,03,49,19.40
2014,08,11,03,50,19.30
2014,08,11,03,51,19.20
2014,08,11,03,52,19.20
2014,08,11,03,53,19.10
2014,08,11,03,54,19.10
2014,08,11,03,55,19.00
2014,08,11,03,56,19.00
2014,08,11,03,57,18.90
2014,08,11,03,58,18.90
2014,08,11,03,59,18.90
2014,08,11,04,00,18.90
2014,08,11,04,01,18.90
2014,08,11,04,02,18.90
2014,08,11,04,03,18.90
2014,08,11,04,04,18.90
2014,08,11,04,05,18.90
2014,08,11,04,06,18.90
2014,08,11,04,07,18.90
2014,08,11,04,08,18.90
2014,08,11,04,09,19.00
2014,08,11,04,10,19.00
2014,08,11,04,11,19.00
2014,08,11,04,12,19.10
2014,08,11,04,13,19.10
2014,08,11,04,14,19.10
2014,08,11,04,15,19.10
2014,08,11,04,16,19.10
2014,08,11,04,17,19.10
2014,08,11,04,18,19.10
2014,08,11,04,19,19.10
2014,08,11,04,20,19.10
2014,08,11,04,21,19.10
2014,08,11,04,22,19.10
2014,08,11,04,23,19.10
2014,08,11,04,24,19.10
2014,08,11,04,25,19.00
2014,08,11,04,26,19.00
2014,08,11,04,27,19.00
2014,08,11,04,28,19.00
2014,08,11,04,29,19.00
2014,08,11,04,30,19.00
2014,08,11,04,31,18.90
2014,08,11,04,32,18.90
2014,08,11,04,33,18.90
2014,08,11,04,34,18.90
2014,08,11,04,35,18.90
2014,08,11,04,36,18.90
2014,08,11,04,37,18.80
2014,08,11,04,38,18.80
2014,08,11,04,39,18.70
2014,08,11,04,40,18.70
2014,08,11,04,41,18.60
2014,08,11,04,42,18.50
2014,08,11,04,43,18.50
2014,08,11,04,44,18.40
2014,08,11,04,45,18.30
2014,08,11,04,46,18.20
2014,08,11,04,47,18.20
2014,08,11,04,48,18.10
2014,08,11,04,49,18.10
2014,08,11,04,50,18.10
2014,08,11,04,51,18.00
2014,08,11,04,52,18.00
2014,08,11,04,53,17.90
2014,08,11,04,54,17.90
2014,08,11,04,55,17.80
2014,08,11,04,56,17.80
2014,08,11,04,57,17.80
2014,08,11,04,58,17.70
2014,08,11,04,59,17.70
2014,08,11,05,00,17.60
2014,08,11,05,01,17.60
2014,08,11,05,02,17.50
2014,08,11,05,03,17.50
2014,08,11,05,04,17.40
2014,08,11,05,05,17.40
2014,08,11,05,06,17.40
2014,08,11,05,07,17.40
2014,08,11,05,08,17.40
2014,08,11,05,09,17.40
2014,08,11,05,10,17.40
2014,08,11,05,11,17.30
2014,08,11,05,12,17.30
2014,08,11,05,13,17.30
2014,08,11,05,14,17.30
2014,08,11,05,15,17.30
2014,08,11,05,16,17.30
2014,08,11,05,17,17.40
2014,08,11,05,18,17.50
2014,08,11,05,19,17.50
2014,08,11,05,20,17.60
2014,08,11,05,21,17.70
2014,08,11,05,22,17.70
2014,08,11,05,23,17.80
2014,08,11,05,24,17.80
2014,08,11,05,25,17.80
2014,08,11,05,26,17.80
2014,08,11,05,27,17.80
2014,08,11,05,28,17.80
2014,08,11,05,29,17.80
2014,08,11,05,30,17.80
2014,08,11,05,31,17.80
2014,08,11,05,32,17.90
2014,08,11,05,33,18.20
2014,08,11,05,34,18.20
2014,08,11,05,35,18.20
2014,08,11,05,36,18.20
2014,08,11,05,37,18.20
2014,08,11,05,38,18.20
2014,08,11,05,39,18.10
2014,08,11,05,40,18.10
2014,08,11,05,41,18.00
2014,08,11,05,42,18.00
2014,08,11,05,43,17.90
2014,08,11,05,44,17.90
2014,08,11,05,45,17.80
2014,08,11,05,46,17.80
2014,08,11,05,47,17.80
2014,08,11,05,48,17.80
2014,08,11,05,49,17.70
2014,08,11,05,50,17.70
2014,08,11,05,51,17.70
2014,08,11,05,52,17.70
2014,08,11,05,53,17.60
2014,08,11,05,54,17.60
2014,08,11,05,55,17.60
2014,08,11,05,56,17.50
2014,08,11,05,57,17.50
2014,08,11,05,58,17.50
2014,08,11,05,59,17.40
2014,08,11,06,00,17.40
2014,08,11,06,01,17.30
2014,08,11,06,02,17.30
2014,08,11,06,03,17.20
2014,08,11,06,04,17.20
2014,08,11,06,05,17.20
2014,08,11,06,06,17.20
2014,08,11,06,07,17.10
2014,08,11,06,08,17.10
2014,08,11,06,09,17.10
2014,08,11,06,10,17.10
2014,08,11,06,11,17.10
2014,08,11,06,12,17.00
2014,08,11,06,13,17.00
2014,08,11,06,14,17.00
2014,08,11,06,15,17.00
2014,08,11,06,16,16.90
2014,08,11,06,17,16.90
2014,08,11,06,18,16.90
2014,08,11,06,19,16.90
2014,08,11,06,20,16.90
2014,08,11,06,21,16.90
2014,08,11,06,22,16.90
2014,08,11,06,23,16.90
2014,08,11,06,24,16.90
2014,08,11,06,25,16.90
2014,08,11,06,26,16.90
2014,08,11,06,27,16.90
2014,08,11,06,28,16.90
2014,08,11,06,29,16.90
2014,08,11,06,30,16.90
2014,08,11,06,31,16.80
2014,08,11,06,32,16.80
2014,08,11,06,33,16.80
2014,08,11,06,34,16.80
2014,08,11,06,35,16.80
2014,08,11,06,36,16.80
2014,08,11,06,37,16.80
2014,08,11,06,38,16.80
2014,08,11,06,39,16.80
2014,08,11,06,40,16.80
2014,08,11,06,41,16.80
2014,08,11,06,42,16.80
2014,08,11,06,43,16.80
2014,08,11,06,44,16.80
2014,08,11,06,45,16.80
2014,08,11,06,46,16.80
2014,08,11,06,47,16.80
2014,08,11,06,48,16.80
2014,08,11,06,49,16.90
2014,08,11,06,50,16.90
2014,08,11,06,51,16.90
2014,08,11,06,52,17.00
2014,08,11,06,53,17.10
2014,08,11,06,54,17.10
2014,08,11,06,55,17.10
2014,08,11,06,56,17.20
2014,08,11,06,57,17.20
2014,08,11,06,58,17.20
2014,08,11,06,59,17.20
2014,08,11,07,00,17.20
2014,08,11,07,01,17.20
2014,08,11,07,02,17.30
2014,08,11,07,03,17.30
2014,08,11,07,04,17.30
2014,08,11,07,05,17.30
2014,08,11,07,06,17.40
2014,08,11,07,07,17.40
2014,08,11,07,08,17.50
2014,08,11,07,09,17.60
2014,08,11,07,10,17.70
2014,08,11,07,11,17.70
2014,08,11,07,12,17.80
2014,08,11,07,13,17.90
2014,08,11,07,14,17.90
2014,08,11,07,15,18.00
2014,08,11,07,16,18.10
2014,08,11,07,17,18.20
2014,08,11,07,18,18.20
2014,08,11,07,19,18.30
2014,08,11,07,20,18.30
2014,08,11,07,21,18.40
2014,08,11,07,22,18.50
2014,08,11,07,23,18.60
2014,08,11,07,24,18.70
2014,08,11,07,25,18.80
2014,08,11,07,26,18.80
2014,08,11,07,27,18.90
2014,08,11,07,28,19.00
2014,08,11,07,29,19.10
2014,08,11,07,30,19.30
2014,08,11,07,31,19.40
2014,08,11,07,32,19.50
2014,08,11,07,33,19.60
2014,08,11,07,34,19.70
2014,08,11,07,35,19.80
2014,08,11,07,36,19.90
2014,08,11,07,37,20.00
2014,08,11,07,38,20.10
2014,08,11,07,39,20.20
2014,08,11,07,40,20.30
2014,08,11,07,41,20.40
2014,08,11,07,42,20.40
2014,08,11,07,43,20.50
2014,08,11,07,44,20.60
2014,08,11,07,45,20.60
2014,08,11,07,46,20.70
2014,08,11,07,47,20.70
2014,08,11,07,48,20.80
2014,08,11,07,49,20.80
2014,08,11,07,50,20.80
2014,08,11,07,51,20.90
2014,08,11,07,52,20.90
2014,08,11,07,53,20.90
2014,08,11,07,54,20.90
2014,08,11,07,55,21.00
2014,08,11,07,56,21.00
2014,08,11,07,57,21.00
2014,08,11,07,58,21.00
2014,08,11,07,59,21.10
2014,08,11,08,00,21.10
2014,08,11,08,01,21.10
2014,08,11,08,02,21.10
2014,08,11,08,03,21.10
2014,08,11,08,04,21.10
2014,08,11,08,05,21.10
2014,08,11,08,06,21.10
2014,08,11,08,07,21.20
2014,08,11,08,08,21.20
2014,08,11,08,09,21.20
2014,08,11,08,10,21.20
2014,08,11,08,11,21.20
2014,08,11,08,12,21.20
2014,08,11,08,13,21.30
2014,08,11,08,14,21.30
2014,08,11,08,15,21.30
2014,08,11,08,16,21.30
2014,08,11,08,17,21.30
2014,08,11,08,18,21.40
2014,08,11,08,19,21.40
2014,08,11,08,20,21.40
2014,08,11,08,21,21.40
2014,08,11,08,22,21.40
2014,08,11,08,23,21.40
2014,08,11,08,24,21.50
2014,08,11,08,25,21.50
2014,08,11,08,26,21.60
2014,08,11,08,27,21.70
2014,08,11,08,28,21.80
2014,08,11,08,29,21.80
2014,08,11,08,30,21.80
2014,08,11,08,31,21.80
2014,08,11,08,32,21.80
2014,08,11,08,33,21.80
2014,08,11,08,34,21.80
2014,08,11,08,35,21.80
2014,08,11,08,36,21.80
2014,08,11,08,37,21.80
2014,08,11,08,38,21.80
2014,08,11,08,39,21.80
2014,08,11,08,40,21.80
2014,08,11,08,41,21.90
2014,08,11,08,42,21.90
2014,08,11,08,43,21.90
2014,08,11,08,44,22.00
2014,08,11,08,45,22.00
2014,08,11,08,46,22.10
2014,08,11,08,47,22.10
2014,08,11,08,48,22.10
2014,08,11,08,49,22.20
2014,08,11,08,50,22.20
2014,08,11,08,51,22.20
2014,08,11,08,52,22.20
2014,08,11,08,53,22.30
2014,08,11,08,54,22.30
2014,08,11,08,55,22.30
2014,08,11,08,56,22.30
2014,08,11,08,57,22.30
2014,08,11,08,58,22.40
2014,08,11,08,59,22.40
2014,08,11,09,00,22.40
2014,08,11,09,01,22.50
2014,08,11,09,02,22.60
2014,08,11,09,03,22.60
2014,08,11,09,04,22.70
2014,08,11,09,05,22.80
2014,08,11,09,06,22.90
2014,08,11,09,07,22.90
2014,08,11,09,08,23.00
2014,08,11,09,09,23.00
2014,08,11,09,10,22.90
2014,08,11,09,11,22.90
2014,08,11,09,12,22.90
2014,08,11,09,13,22.80
2014,08,11,09,14,22.80
2014,08,11,09,15,22.80
2014,08,11,09,16,22.80
2014,08,11,09,17,22.90
2014,08,11,09,18,22.90
2014,08,11,09,19,22.90
2014,08,11,09,20,22.90
2014,08,11,09,21,22.90
2014,08,11,09,22,23.00
2014,08,11,09,23,23.00
2014,08,11,09,24,23.10
2014,08,11,09,25,23.10
2014,08,11,09,26,23.10
2014,08,11,09,27,23.00
2014,08,11,09,28,23.00
2014,08,11,09,29,23.00
2014,08,11,09,30,22.90
2014,08,11,09,31,22.90
2014,08,11,09,32,22.90
2014,08,11,09,33,22.80
2014,08,11,09,34,22.80
2014,08,11,09,35,22.70
2014,08,11,09,36,22.70
2014,08,11,09,37,22.60
2014,08,11,09,38,22.60
2014,08,11,09,39,22.50
2014,08,11,09,40,22.50
2014,08,11,09,41,22.40
2014,08,11,09,42,22.30
2014,08,11,09,43,22.30
2014,08,11,09,44,22.30
2014,08,11,09,45,22.30
2014,08,11,09,46,22.30
2014,08,11,09,47,22.30
2014,08,11,09,48,22.30
2014,08,11,09,49,22.20
2014,08,11,09,50,22.20
2014,08,11,09,51,22.20
2014,08,11,09,52,22.20
2014,08,11,09,53,22.20
2014,08,11,09,54,22.20
2014,08,11,09,55,22.20
2014,08,11,09,56,22.20
2014,08,11,09,57,22.20
2014,08,11,09,58,22.20
2014,08,11,09,59,22.20
2014,08,11,10,00,22.20
2014,08,11,10,01,22.20
2014,08,11,10,02,22.20
2014,08,11,10,03,22.20
2014,08,11,10,04,22.20
2014,08,11,10,05,22.20
2014,08,11,10,06,22.20
2014,08,11,10,07,22.20
2014,08,11,10,08,22.20
2014,08,11,10,09,22.20
2014,08,11,10,10,22.20
2014,08,11,10,11,22.10
2014,08,11,10,12,22.10
2014,08,11,10,13,22.10
2014,08,11,10,14,22.00
2014,08,11,10,15,22.00
2014,08,11,10,16,22.00
2014,08,11,10,17,22.00
2014,08,11,10,18,22.00
2014,08,11,10,19,22.10
2014,08,11,10,20,22.10
2014,08,11,10,21,22.10
2014,08,11,10,22,22.10
2014,08,11,10,23,22.00
2014,08,11,10,24,22.00
2014,08,11,10,25,21.90
2014,08,11,10,26,21.90
2014,08,11,10,27,21.80
2014,08,11,10,28,21.70
2014,08,11,10,29,21.70
2014,08,11,10,30,21.60
2014,08,11,10,31,21.50
2014,08,11,10,32,21.50
2014,08,11,10,33,21.40
2014,08,11,10,34,21.30
2014,08,11,10,35,21.30
2014,08,11,10,36,21.20
2014,08,11,10,37,21.20
2014,08,11,10,38,21.20
2014,08,11,10,39,21.20
2014,08,11,10,40,21.30
2014,08,11,10,41,21.30
2014,08,11,10,42,21.30
2014,08,11,10,43,21.30
2014,08,11,10,44,21.30
2014,08,11,10,45,21.30
2014,08,11,10,46,21.30
2014,08,11,10,47,21.30
2014,08,11,10,48,21.30
2014,08,11,10,49,21.30
2014,08,11,10,50,21.30
2014,08,11,10,51,21.30
2014,08,11,10,52,21.30
2014,08,11,10,53,21.30
2014,08,11,10,54,21.40
2014,08,11,10,55,21.40
2014,08,11,10,56,21.40
2014,08,11,10,57,21.40
2014,08,11,10,58,21.40
2014,08,11,10,59,21.50
2014,08,11,11,00,21.50
2014,08,11,11,01,21.60
2014,08,11,11,02,21.60
2014,08,11,11,03,21.60
2014,08,11,11,04,21.70
2014,08,11,11,05,21.70
2014,08,11,11,06,21.70
2014,08,11,11,07,21.70
2014,08,11,11,08,21.80
2014,08,11,11,09,21.80
2014,08,11,11,10,21.80
2014,08,11,11,11,21.90
2014,08,11,11,12,22.00
2014,08,11,11,13,22.00
2014,08,11,11,14,22.00
2014,08,11,11,15,22.00
2014,08,11,11,16,22.00
2014,08,11,11,17,22.00
2014,08,11,11,18,22.00
2014,08,11,11,19,22.00
2014,08,11,11,20,22.00
2014,08,11,11,21,22.00
2014,08,11,11,22,22.00
2014,08,11,11,23,22.00
2014,08,11,11,24,22.10
2014,08,11,11,25,22.10
2014,08,11,11,26,22.10
2014,08,11,11,27,22.20
2014,08,11,11,28,22.20
2014,08,11,11,29,22.20
2014,08,11,11,30,22.30
2014,08,11,11,31,22.30
2014,08,11,11,32,22.30
2014,08,11,11,33,22.30
2014,08,11,11,34,22.30
2014,08,11,11,35,22.30
2014,08,11,11,36,22.30
2014,08,11,11,37,22.30
2014,08,11,11,38,22.30
2014,08,11,11,39,22.40
2014,08,11,11,40,22.40
2014,08,11,11,41,22.30
2014,08,11,11,42,22.30
2014,08,11,11,43,22.30
2014,08,11,11,44,22.30
2014,08,11,11,45,22.30
2014,08,11,11,46,22.40
2014,08,11,11,47,22.40
2014,08,11,11,48,22.50
2014,08,11,11,49,22.50
2014,08,11,11,50,22.50
2014,08,11,11,51,22.60
2014,08,11,11,52,22.60
2014,08,11,11,53,22.60
2014,08,11,11,54,22.70
2014,08,11,11,55,22.70
2014,08,11,11,56,22.80
2014,08,11,11,57,22.80
2014,08,11,11,58,22.80
2014,08,11,11,59,22.80
2014,08,11,12,00,22.80
2014,08,11,12,01,22.90
2014,08,11,12,02,22.90
2014,08,11,12,03,23.00
2014,08,11,12,04,23.00
2014,08,11,12,05,23.00
2014,08,11,12,06,23.10
2014,08,11,12,07,23.10
2014,08,11,12,08,23.10
2014,08,11,12,09,23.20
2014,08,11,12,10,23.20
2014,08,11,12,11,23.30
2014,08,11,12,12,23.30
2014,08,11,12,13,23.40
2014,08,11,12,14,23.50
2014,08,11,12,15,23.50
2014,08,11,12,16,23.60
2014,08,11,12,17,23.70
2014,08,11,12,18,23.80
2014,08,11,12,19,23.80
2014,08,11,12,20,23.80
2014,08,11,12,21,23.90
2014,08,11,12,22,23.90
2014,08,11,12,23,24.00
2014,08,11,12,24,24.00
2014,08,11,12,25,24.10
2014,08,11,12,26,24.10
2014,08,11,12,27,24.20
2014,08,11,12,28,24.20
2014,08,11,12,29,24.20
2014,08,11,12,30,24.20
2014,08,11,12,31,24.20
2014,08,11,12,32,24.20
2014,08,11,12,33,24.20
2014,08,11,12,34,24.20
2014,08,11,12,35,24.20
2014,08,11,12,36,24.20
2014,08,11,12,37,24.20
2014,08,11,12,38,24.20
2014,08,11,12,39,24.20
2014,08,11,12,40,24.10
2014,08,11,12,41,24.20
2014,08,11,12,42,24.20
2014,08,11,12,43,24.30
2014,08,11,12,44,24.40
2014,08,11,12,45,24.40
2014,08,11,12,46,24.50
2014,08,11,12,47,24.50
2014,08,11,12,48,24.60
2014,08,11,12,49,24.60
2014,08,11,12,50,24.60
2014,08,11,12,51,24.60
2014,08,11,12,52,24.70
2014,08,11,12,53,24.70
2014,08,11,12,54,24.70
2014,08,11,12,55,24.70
2014,08,11,12,56,24.80
2014,08,11,12,57,24.90
2014,08,11,12,58,24.90
2014,08,11,12,59,25.00
2014,08,11,13,00,25.00
2014,08,11,13,01,25.00
2014,08,11,13,02,25.00
2014,08,11,13,03,24.90
2014,08,11,13,04,24.90
2014,08,11,13,05,24.80
2014,08,11,13,06,24.70
2014,08,11,13,07,24.70
2014,08,11,13,08,24.60
2014,08,11,13,09,24.60
2014,08,11,13,10,24.60
2014,08,11,13,11,24.60
2014,08,11,13,12,24.60
2014,08,11,13,13,24.70
2014,08,11,13,14,24.80
2014,08,11,13,15,24.80
2014,08,11,13,16,24.90
2014,08,11,13,17,24.90
2014,08,11,13,18,25.00
2014,08,11,13,19,25.00
2014,08,11,13,20,25.10
2014,08,11,13,21,25.10
2014,08,11,13,22,25.20
2014,08,11,13,23,25.20
2014,08,11,13,24,25.20
2014,08,11,13,25,25.20
2014,08,11,13,26,25.30
2014,08,11,13,27,25.30
2014,08,11,13,28,25.30
2014,08,11,13,29,25.30
2014,08,11,13,30,25.20
2014,08,11,13,31,25.20
2014,08,11,13,32,25.20
2014,08,11,13,33,25.20
2014,08,11,13,34,25.20
2014,08,11,13,35,25.20
2014,08,11,13,36,25.20
2014,08,11,13,37,25.30
2014,08,11,13,38,25.30
2014,08,11,13,39,25.40
2014,08,11,13,40,25.50
2014,08,11,13,41,25.50
2014,08,11,13,42,25.60
2014,08,11,13,43,25.60
2014,08,11,13,44,25.60
2014,08,11,13,45,25.60
2014,08,11,13,46,25.70
2014,08,11,13,47,25.70
2014,08,11,13,48,25.80
2014,08,11,13,49,25.90
2014,08,11,13,50,25.90
2014,08,11,13,51,25.90
2014,08,11,13,52,26.00
2014,08,11,13,53,26.10
2014,08,11,13,54,26.20
2014,08,11,13,55,26.30
2014,08,11,13,56,26.30
2014,08,11,13,57,26.40
2014,08,11,13,58,26.50
2014,08,11,13,59,26.50
2014,08,11,14,00,26.50
2014,08,11,14,01,26.50
2014,08,11,14,02,26.50
2014,08,11,14,03,26.40
2014,08,11,14,04,26.30
2014,08,11,14,05,26.30
2014,08,11,14,06,26.20
2014,08,11,14,07,26.20
2014,08,11,14,08,26.10
2014,08,11,14,09,26.00
2014,08,11,14,10,25.90
2014,08,11,14,11,25.90
2014,08,11,14,12,25.90
2014,08,11,14,13,25.90
2014,08,11,14,14,25.90
2014,08,11,14,15,25.90
2014,08,11,14,16,25.90
2014,08,11,14,17,25.90
2014,08,11,14,18,25.90
2014,08,11,14,19,25.90
2014,08,11,14,20,25.90
2014,08,11,14,21,25.90
2014,08,11,14,22,25.90
2014,08,11,14,23,26.00
2014,08,11,14,24,26.10
2014,08,11,14,25,26.20
2014,08,11,14,26,26.30
2014,08,11,14,27,26.40
2014,08,11,14,28,26.40
2014,08,11,14,29,26.50
2014,08,11,14,30,26.60
2014,08,11,14,31,26.70
2014,08,11,14,32,26.80
2014,08,11,14,33,26.80
2014,08,11,14,34,26.90
2014,08,11,14,35,26.90
2014,08,11,14,36,27.00
2014,08,11,14,37,27.10
2014,08,11,14,38,27.10
2014,08,11,14,39,27.20
2014,08,11,14,40,27.20
2014,08,11,14,41,27.20
2014,08,11,14,42,27.20
2014,08,11,14,43,27.20
2014,08,11,14,44,27.10
2014,08,11,14,45,27.10
2014,08,11,14,46,27.10
2014,08,11,14,47,27.10
2014,08,11,14,48,27.00
2014,08,11,14,49,26.90
2014,08,11,14,50,26.80
2014,08,11,14,51,26.80
2014,08,11,14,52,26.70
2014,08,11,14,53,26.60
2014,08,11,14,54,26.60
2014,08,11,14,55,26.60
2014,08,11,14,56,26.60
2014,08,11,14,57,26.60
2014,08,11,14,58,26.60
2014,08,11,14,59,26.60
2014,08,11,15,00,26.70
2014,08,11,15,01,26.70
2014,08,11,15,02,26.80
2014,08,11,15,03,26.80
2014,08,11,15,04,26.80
2014,08,11,15,05,26.90
2014,08,11,15,06,26.90
2014,08,11,15,07,26.90
2014,08,11,15,08,26.90
2014,08,11,15,09,27.00
2014,08,11,15,10,27.00
2014,08,11,15,11,27.10
2014,08,11,15,12,27.10
2014,08,11,15,13,27.10
2014,08,11,15,14,27.20
2014,08,11,15,15,27.30
2014,08,11,15,16,27.40
2014,08,11,15,17,27.50
2014,08,11,15,18,27.60
2014,08,11,15,19,27.70
2014,08,11,15,20,27.80
2014,08,11,15,21,27.80
2014,08,11,15,22,27.80
2014,08,11,15,23,27.80
2014,08,11,15,24,27.80
2014,08,11,15,25,27.80
2014,08,11,15,26,27.70
2014,08,11,15,27,27.70
2014,08,11,15,28,27.70
2014,08,11,15,29,27.70
2014,08,11,15,30,27.80
2014,08,11,15,31,27.80
2014,08,11,15,32,27.80
2014,08,11,15,33,27.90
2014,08,11,15,34,27.80
2014,08,11,15,35,27.80
2014,08,11,15,36,27.70
2014,08,11,15,37,27.70
2014,08,11,15,38,27.60
2014,08,11,15,39,27.60
2014,08,11,15,40,27.60
2014,08,11,15,41,27.60
2014,08,11,15,42,27.60
2014,08,11,15,43,27.70
2014,08,11,15,44,27.70
2014,08,11,15,45,27.80
2014,08,11,15,46,27.80
2014,08,11,15,47,27.80
2014,08,11,15,48,27.80
2014,08,11,15,49,27.80
2014,08,11,15,50,27.80
2014,08,11,15,51,27.80
2014,08,11,15,52,27.80
2014,08,11,15,53,27.70
2014,08,11,15,54,27.60
2014,08,11,15,55,27.50
2014,08,11,15,56,27.30
2014,08,11,15,57,27.30
2014,08,11,15,58,27.20
2014,08,11,15,59,27.10
2014,08,11,16,00,27.10
2014,08,11,16,01,27.00
2014,08,11,16,02,27.00
2014,08,11,16,03,26.90
2014,08,11,16,04,26.90
2014,08,11,16,05,26.90
2014,08,11,16,06,26.90
2014,08,11,16,07,26.90
2014,08,11,16,08,26.90
2014,08,11,16,09,26.90
2014,08,11,16,10,26.80
2014,08,11,16,11,26.80
2014,08,11,16,12,26.80
2014,08,11,16,13,26.80
2014,08,11,16,14,26.80
2014,08,11,16,15,26.70
2014,08,11,16,16,26.70
2014,08,11,16,17,26.70
2014,08,11,16,18,26.60
2014,08,11,16,19,26.50
2014,08,11,16,20,26.50
2014,08,11,16,21,26.50
2014,08,11,16,22,26.50
2014,08,11,16,23,26.60
2014,08,11,16,24,26.60
2014,08,11,16,25,26.60
2014,08,11,16,26,26.60
2014,08,11,16,27,26.60
2014,08,11,16,28,26.60
2014,08,11,16,29,26.60
2014,08,11,16,30,26.60
2014,08,11,16,31,26.70
2014,08,11,16,32,26.70
2014,08,11,16,33,26.70
2014,08,11,16,34,26.70
2014,08,11,16,35,26.70
2014,08,11,16,36,26.70
2014,08,11,16,37,26.70
2014,08,11,16,38,26.70
2014,08,11,16,39,26.80
2014,08,11,16,40,26.80
2014,08,11,16,41,26.80
2014,08,11,16,42,26.90
2014,08,11,16,43,27.00
2014,08,11,16,44,27.10
2014,08,11,16,45,27.10
2014,08,11,16,46,27.20
2014,08,11,16,47,27.30
2014,08,11,16,48,27.30
2014,08,11,16,49,27.30
2014,08,11,16,50,27.40
2014,08,11,16,51,27.40
2014,08,11,16,52,27.50
2014,08,11,16,53,27.60
2014,08,11,16,54,27.60
2014,08,11,16,55,27.70
2014,08,11,16,56,27.70
2014,08,11,16,57,27.70
2014,08,11,16,58,27.80
2014,08,11,16,59,27.80
2014,08,11,17,00,27.80
2014,08,11,17,01,27.80
2014,08,11,17,02,27.80
2014,08,11,17,03,27.90
2014,08,11,17,04,27.90
2014,08,11,17,05,27.90
2014,08,11,17,06,28.00
2014,08,11,17,07,28.10
2014,08,11,17,08,28.10
2014,08,11,17,09,28.10
2014,08,11,17,10,28.20
2014,08,11,17,11,28.20
2014,08,11,17,12,28.20
2014,08,11,17,13,28.10
2014,08,11,17,14,28.00
2014,08,11,17,15,27.90
2014,08,11,17,16,27.90
2014,08,11,17,17,27.80
2014,08,11,17,18,27.70
2014,08,11,17,19,27.70